sat.trackr.live / text

‹ back to catalog

HULIANWANG DIGUI-25

NORAD 63692 · 2025-086F

PAYLOAD ACTIVE UNKNOWN

§ Identity

Operator
Country
PRC
Launch date
2025-04-28
Launch site
WSC
Launch vehicle
Mass (kg)
RCS (m²)

External: N2YO · Heavens-Above · Gunter

§ Orbital elements

Epoch: 2026-09-21T22:08:59.811936Z

Period
108.73 min
Inclination
86.4962°
Eccentricity
0.0001837
Mean motion
13.24411522 rev/d
Perigee alt
1,166.5 km
Apogee alt
1,169.3 km
Semi-major
7,546.1 km
B*
-1.6164e-4
RAAN
280.4208°
Arg perigee
79.7577°
Mean anomaly
280.3765°
Rev number
6,766

§ Raw data

HULIANWANG DIGUI-251 63692U 25086F   26264.92291449 -.00000055  00000+0 -16164-3 0  99992 63692  86.4962 280.4208 0001837  79.7577 280.3765 13.24411522 67669

JSON: /api/v1/satellites/63692 · /tle

For live sub-satellite position, see the globe view (requires WebGL).

§ Visibility from observer

Set your observer location to see the next 7 days of passes ≥ 10°. The values pass through the URL so the page stays shareable.

No JS? Fill the form by hand. The geolocation button needs JavaScript.